AFR344 LFPG-CYUL

Flight info

Callsign AFR344
Flight time 7h 5m
Altitude 32000
Route ELCOB UT300 SENLO UN502 JSY DCT LIZAD DCT GAPLI/M082F320 DCT DINIM DCT 52N020W 54N030W 5430N04000W 54N050W DCT NEEKO/N0481F320 N624C ANATI DCT DEBUS
Aircraft B77W/H-SDE2E3FGHIJ3J5M1P2RWXYZ/LB1D1

Departure

Time 2026-05-08 14:00
Airport Charles de Gaulle International Airport (LFPG)

Arrival

Time 2026-05-08 21:05
Airport Montreal / Pierre Elliott Trudeau International Airport (CYUL)
Time Latitude Longitude Altitude Speed Heading
2026-05-08 13:33 49.00219 2.58627 359 ft 0 kts 264°
2026-05-08 13:48 49.00219 2.58629 359 ft 2 kts 264°
2026-05-08 13:48 49.00223 2.58668 362 ft 4 kts 253°
2026-05-08 13:48 49.00233 2.58705 367 ft 4 kts 239°
2026-05-08 13:49 49.00250 2.58737 367 ft 4 kts 214°
2026-05-08 13:49 49.00271 2.58749 361 ft 1 kts 175°
2026-05-08 13:53 49.00270 2.58749 359 ft 1 kts 175°
2026-05-08 13:53 49.00254 2.58751 363 ft 4 kts 175°
2026-05-08 13:53 49.00220 2.58756 363 ft 6 kts 175°
2026-05-08 13:53 49.00168 2.58762 359 ft 9 kts 175°
2026-05-08 13:54 49.00100 2.58768 361 ft 11 kts 183°
2026-05-08 13:54 49.00041 2.58700 359 ft 12 kts 248°
2026-05-08 13:54 49.00026 2.58569 359 ft 13 kts 264°
2026-05-08 13:54 49.00017 2.58417 365 ft 15 kts 265°
2026-05-08 13:55 49.00008 2.58243 363 ft 17 kts 265°
2026-05-08 13:55 48.99997 2.58053 361 ft 18 kts 265°
2026-05-08 13:55 48.99978 2.57668 361 ft 18 kts 265°
2026-05-08 13:56 48.99967 2.57475 359 ft 18 kts 265°
2026-05-08 13:56 48.99956 2.57283 361 ft 18 kts 265°
2026-05-08 13:56 48.99946 2.57090 365 ft 18 kts 266°
2026-05-08 13:56 48.99936 2.56898 359 ft 18 kts 265°
2026-05-08 13:57 48.99926 2.56705 364 ft 18 kts 265°
2026-05-08 13:57 48.99915 2.56512 366 ft 18 kts 265°
2026-05-08 13:57 48.99904 2.56320 362 ft 18 kts 265°
2026-05-08 13:57 48.99895 2.56127 359 ft 18 kts 266°
2026-05-08 13:58 48.99894 2.55937 359 ft 18 kts 278°
2026-05-08 13:58 48.99864 2.55814 363 ft 11 kts 204°
2026-05-08 13:58 48.99790 2.55802 365 ft 11 kts 179°
2026-05-08 13:58 48.99715 2.55808 363 ft 11 kts 175°
2026-05-08 13:59 48.99640 2.55825 363 ft 11 kts 161°
2026-05-08 13:59 48.99607 2.55922 358 ft 11 kts 92°
2026-05-08 13:59 48.99608 2.55985 358 ft 0 kts 86°
2026-05-08 13:59 48.99622 2.56267 364 ft 62 kts 85°
2026-05-08 14:00 48.99675 2.57271 360 ft 127 kts 85°
2026-05-08 14:00 48.99762 2.58888 363 ft 177 kts 85°
2026-05-08 14:00 48.99872 2.60837 758 ft 183 kts 86°
2026-05-08 14:00 48.99973 2.62724 1501 ft 177 kts 85°
2026-05-08 14:01 49.00075 2.64716 1797 ft 203 kts 85°
2026-05-08 14:01 49.00190 2.66924 2129 ft 221 kts 85°
2026-05-08 14:01 49.00316 2.69342 2557 ft 232 kts 85°
2026-05-08 14:01 49.00447 2.71852 3088 ft 242 kts 85°
2026-05-08 14:02 49.00582 2.74469 3594 ft 254 kts 85°
2026-05-08 14:02 49.00720 2.77188 4193 ft 261 kts 86°
2026-05-08 14:02 49.00629 2.79969 4786 ft 266 kts 98°
2026-05-08 14:02 49.00303 2.82764 5504 ft 268 kts 101°
2026-05-08 14:03 48.99964 2.85551 6269 ft 269 kts 100°
2026-05-08 14:03 48.99648 2.88334 6928 ft 272 kts 99°
2026-05-08 14:03 48.99336 2.91207 7516 ft 278 kts 99°
2026-05-08 14:03 48.99025 2.94134 8145 ft 282 kts 100°
2026-05-08 14:04 48.98649 2.97066 8720 ft 283 kts 111°
2026-05-08 14:04 48.97539 2.99569 9192 ft 286 kts 143°
2026-05-08 14:04 48.95783 3.00895 9862 ft 283 kts 170°
2026-05-08 14:04 48.93823 3.00926 10398 ft 286 kts 194°
2026-05-08 14:05 48.91981 2.99704 10574 ft 305 kts 217°
2026-05-08 14:05 48.90475 2.97259 10746 ft 325 kts 236°
2026-05-08 14:05 48.89463 2.94067 10914 ft 347 kts 251°
2026-05-08 14:05 48.88817 2.90444 11341 ft 361 kts 256°
2026-05-08 14:06 48.88262 2.86681 12017 ft 368 kts 257°
2026-05-08 14:06 48.87704 2.82917 12895 ft 371 kts 256°
2026-05-08 14:06 48.87104 2.79090 13834 ft 374 kts 255°
2026-05-08 14:06 48.86467 2.75241 14616 ft 378 kts 255°
2026-05-08 14:07 48.85802 2.71365 15385 ft 382 kts 254°
2026-05-08 14:07 48.85115 2.67450 16157 ft 386 kts 254°
2026-05-08 14:07 48.84415 2.63499 16931 ft 390 kts 254°
2026-05-08 14:07 48.83705 2.59517 17699 ft 394 kts 254°
2026-05-08 14:08 48.82982 2.55473 18423 ft 398 kts 254°
2026-05-08 14:08 48.82255 2.51404 19109 ft 402 kts 255°
2026-05-08 14:08 48.81519 2.47301 19806 ft 404 kts 255°
2026-05-08 14:08 48.80778 2.43165 20470 ft 405 kts 256°
2026-05-08 14:09 48.80417 2.38926 20909 ft 411 kts 272°
2026-05-08 14:09 48.80946 2.34656 21484 ft 412 kts 287°
2026-05-08 14:09 48.81829 2.30495 22091 ft 416 kts 287°
2026-05-08 14:09 48.82711 2.26296 22770 ft 419 kts 287°
2026-05-08 14:10 48.83585 2.22075 23433 ft 421 kts 287°
2026-05-08 14:10 48.84454 2.17825 23995 ft 422 kts 288°
2026-05-08 14:10 48.85314 2.13576 24707 ft 419 kts 288°
2026-05-08 14:10 48.86164 2.09341 25315 ft 420 kts 288°
2026-05-08 14:11 48.87018 2.05073 25753 ft 425 kts 288°
2026-05-08 14:11 48.87878 2.00759 26187 ft 428 kts 288°
2026-05-08 14:11 48.88705 1.96597 26634 ft 430 kts 288°
2026-05-08 14:11 48.89568 1.92237 27120 ft 432 kts 288°
2026-05-08 14:12 48.90434 1.87859 27599 ft 434 kts 289°
2026-05-08 14:12 48.91305 1.83446 28021 ft 436 kts 289°
2026-05-08 14:12 48.92178 1.79012 28442 ft 439 kts 289°
2026-05-08 14:12 48.93053 1.74554 28794 ft 442 kts 288°
2026-05-08 14:13 48.93935 1.70052 29055 ft 447 kts 288°
2026-05-08 14:13 48.94823 1.65507 29372 ft 449 kts 288°
2026-05-08 14:13 48.95711 1.60954 29867 ft 448 kts 288°
2026-05-08 14:13 48.96593 1.56418 30380 ft 446 kts 288°
2026-05-08 14:14 48.97467 1.51910 30876 ft 443 kts 288°
2026-05-08 14:14 48.98335 1.47424 31317 ft 441 kts 288°
2026-05-08 14:14 48.99200 1.42949 31736 ft 440 kts 288°
2026-05-08 14:14 49.00061 1.38481 32081 ft 440 kts 288°
2026-05-08 14:15 49.00926 1.33989 32038 ft 443 kts 288°
2026-05-08 14:15 49.02638 1.25055 32040 ft 442 kts 287°
2026-05-08 14:16 49.03630 1.15832 32059 ft 444 kts 275°
2026-05-08 14:16 49.03812 1.06415 32051 ft 445 kts 274°
2026-05-08 14:17 49.03988 0.97157 32044 ft 445 kts 274°
2026-05-08 14:17 49.04228 0.87727 32019 ft 446 kts 274°
2026-05-08 14:18 49.04493 0.78281 32024 ft 446 kts 274°
2026-05-08 14:18 49.04755 0.68830 32029 ft 447 kts 274°
2026-05-08 14:19 49.05007 0.59368 32026 ft 447 kts 274°
2026-05-08 14:19 49.05251 0.49894 32026 ft 447 kts 274°
2026-05-08 14:20 49.05486 0.40422 32021 ft 447 kts 273°
2026-05-08 14:20 49.05714 0.30936 32027 ft 448 kts 273°
2026-05-08 14:21 49.05934 0.21442 32034 ft 448 kts 273°
2026-05-08 14:21 49.06147 0.11938 32030 ft 449 kts 273°
2026-05-08 14:22 49.06351 0.02492 32020 ft 449 kts 273°
2026-05-08 14:22 49.06545 -0.06843 32007 ft 449 kts 272°
2026-05-08 14:23 49.06735 -0.16364 32015 ft 450 kts 272°
2026-05-08 14:23 49.06918 -0.25889 32021 ft 450 kts 272°
2026-05-08 14:24 49.07095 -0.35442 32020 ft 450 kts 272°
2026-05-08 14:24 49.07265 -0.44992 32023 ft 451 kts 272°
2026-05-08 14:25 49.07427 -0.54552 32017 ft 451 kts 272°
2026-05-08 14:25 49.07556 -0.62492 32019 ft 450 kts 272°
2026-05-08 14:26 49.07703 -0.72043 32013 ft 450 kts 272°
2026-05-08 14:26 49.07842 -0.81590 32009 ft 450 kts 272°
2026-05-08 14:27 49.07974 -0.91132 32010 ft 450 kts 271°
2026-05-08 14:27 49.08095 -1.00492 32015 ft 450 kts 271°
2026-05-08 14:28 49.08213 -1.10029 32013 ft 450 kts 271°
2026-05-08 14:28 49.08641 -1.19523 32023 ft 449 kts 279°
2026-05-08 14:29 49.10033 -1.28806 32020 ft 449 kts 284°
2026-05-08 14:29 49.11568 -1.38055 32007 ft 450 kts 283°
2026-05-08 14:30 49.13077 -1.47340 32017 ft 452 kts 283°
2026-05-08 14:30 49.14571 -1.56674 32009 ft 453 kts 283°
2026-05-08 14:31 49.16057 -1.66029 32009 ft 454 kts 283°
2026-05-08 14:31 49.17539 -1.75404 32011 ft 454 kts 283°
2026-05-08 14:32 49.19749 -1.89484 32018 ft 455 kts 282°
2026-05-08 14:32 49.21207 -1.98828 32020 ft 455 kts 282°
2026-05-08 14:33 49.22662 -2.08081 32015 ft 456 kts 283°
2026-05-08 14:33 49.24272 -2.17464 32014 ft 456 kts 283°
2026-05-08 14:34 49.25905 -2.26847 32010 ft 457 kts 283°
2026-05-08 14:34 49.27518 -2.36250 32017 ft 457 kts 283°
2026-05-08 14:35 49.29112 -2.45664 32022 ft 457 kts 283°
2026-05-08 14:35 49.30696 -2.55085 32019 ft 456 kts 283°
2026-05-08 14:36 49.32270 -2.64496 32020 ft 456 kts 282°
2026-05-08 14:36 49.33837 -2.73922 32021 ft 456 kts 282°
2026-05-08 14:37 49.35399 -2.83362 32014 ft 457 kts 282°
2026-05-08 14:37 49.36956 -2.92825 32014 ft 458 kts 282°
2026-05-08 14:38 49.38477 -3.02122 32011 ft 458 kts 282°
2026-05-08 14:38 49.40021 -3.11614 32014 ft 458 kts 282°
2026-05-08 14:39 49.41549 -3.21059 32013 ft 459 kts 282°
2026-05-08 14:39 49.43081 -3.30589 32012 ft 460 kts 281°
2026-05-08 14:40 49.44609 -3.40139 32011 ft 460 kts 281°
2026-05-08 14:40 49.46129 -3.49699 32011 ft 461 kts 281°
2026-05-08 14:41 49.47641 -3.59267 32028 ft 460 kts 281°
2026-05-08 14:41 49.49146 -3.68843 32013 ft 461 kts 281°
2026-05-08 14:42 49.50645 -3.78435 32010 ft 461 kts 281°
2026-05-08 14:42 49.52134 -3.88024 32010 ft 461 kts 281°
2026-05-08 14:43 49.53617 -3.97628 32011 ft 461 kts 281°
2026-05-08 14:43 49.55065 -4.07065 32021 ft 461 kts 280°
2026-05-08 14:44 49.56534 -4.16695 32015 ft 462 kts 280°
2026-05-08 14:44 49.57998 -4.26348 32014 ft 463 kts 280°
2026-05-08 14:45 49.59438 -4.36027 32013 ft 463 kts 279°
2026-05-08 14:45 49.60696 -4.45758 32014 ft 463 kts 278°
2026-05-08 14:46 49.61896 -4.55514 32023 ft 464 kts 278°
2026-05-08 14:46 49.63106 -4.65283 32017 ft 464 kts 278°
2026-05-08 14:47 49.64326 -4.75070 32016 ft 465 kts 278°
2026-05-08 14:47 49.65543 -4.84862 32028 ft 465 kts 278°
2026-05-08 14:48 49.66752 -4.94656 32021 ft 464 kts 278°
2026-05-08 14:48 49.67929 -5.04265 32015 ft 463 kts 277°
2026-05-08 14:49 49.69115 -5.14027 32023 ft 462 kts 277°
2026-05-08 14:49 49.70291 -5.23783 32019 ft 462 kts 277°
2026-05-08 14:50 49.71460 -5.33545 32021 ft 462 kts 277°
2026-05-08 14:50 49.72619 -5.43302 32022 ft 462 kts 277°
2026-05-08 14:51 49.73773 -5.53093 32026 ft 463 kts 277°
2026-05-08 14:51 49.74922 -5.62909 32018 ft 464 kts 277°
2026-05-08 14:52 49.76633 -5.77673 32016 ft 465 kts 277°
2026-05-08 14:53 49.77757 -5.87464 32019 ft 465 kts 277°
2026-05-08 14:53 49.78880 -5.97330 32021 ft 466 kts 276°
2026-05-08 14:54 49.79978 -6.07047 32024 ft 466 kts 276°
2026-05-08 14:54 49.81086 -6.16933 32031 ft 466 kts 276°
2026-05-08 14:55 49.82183 -6.26804 32020 ft 465 kts 276°
2026-05-08 14:55 49.83272 -6.36673 32030 ft 465 kts 276°
2026-05-08 14:56 49.84351 -6.46538 32021 ft 464 kts 276°
2026-05-08 14:56 49.85421 -6.56404 32022 ft 464 kts 276°
2026-05-08 14:57 49.86483 -6.66273 32022 ft 464 kts 276°
2026-05-08 14:57 49.87536 -6.76151 32022 ft 465 kts 276°
2026-05-08 14:58 49.88583 -6.86041 32033 ft 465 kts 275°
2026-05-08 14:58 49.89622 -6.95951 32024 ft 466 kts 275°
2026-05-08 14:59 49.90637 -7.05711 32022 ft 466 kts 275°
2026-05-08 14:59 49.92171 -7.20618 32022 ft 466 kts 275°
2026-05-08 15:00 49.93183 -7.30564 32036 ft 467 kts 275°
2026-05-08 15:00 49.94187 -7.40520 32024 ft 467 kts 275°
2026-05-08 15:01 49.95183 -7.50484 32026 ft 467 kts 275°
2026-05-08 15:01 49.96171 -7.60446 32017 ft 466 kts 274°
2026-05-08 15:02 49.97147 -7.70390 32018 ft 465 kts 274°
2026-05-08 15:02 49.98112 -7.80314 32027 ft 465 kts 274°
2026-05-08 15:03 49.99064 -7.90188 32020 ft 465 kts 274°
2026-05-08 15:03 50.00042 -8.00077 32021 ft 467 kts 276°
2026-05-08 15:04 50.01641 -8.09787 32025 ft 471 kts 281°
2026-05-08 15:04 50.03404 -8.19600 32019 ft 471 kts 281°
2026-05-08 15:05 50.05146 -8.29437 32031 ft 472 kts 280°
2026-05-08 15:05 50.06864 -8.39321 32027 ft 473 kts 280°
2026-05-08 15:06 50.08566 -8.49222 32023 ft 474 kts 280°
2026-05-08 15:06 50.10261 -8.59136 32023 ft 474 kts 280°
2026-05-08 15:07 50.11945 -8.69041 32016 ft 473 kts 280°
2026-05-08 15:07 50.13619 -8.78939 32029 ft 472 kts 279°
2026-05-08 15:08 50.15002 -8.87156 32027 ft 471 kts 279°
2026-05-08 15:08 50.16934 -8.98709 32031 ft 471 kts 279°
2026-05-08 15:09 50.18549 -9.08424 32029 ft 471 kts 279°
2026-05-08 15:09 50.20184 -9.18320 32030 ft 471 kts 279°
2026-05-08 15:10 50.21811 -9.28225 32035 ft 472 kts 279°
2026-05-08 15:10 50.23433 -9.38158 32034 ft 472 kts 279°
2026-05-08 15:11 50.25048 -9.48105 32029 ft 472 kts 279°
2026-05-08 15:11 50.26656 -9.58058 32038 ft 472 kts 279°
2026-05-08 15:12 50.28241 -9.67936 32027 ft 471 kts 279°
2026-05-08 15:12 50.29824 -9.77860 32028 ft 470 kts 279°
2026-05-08 15:13 50.31395 -9.87766 32030 ft 469 kts 278°
2026-05-08 15:13 50.32703 -9.96064 32030 ft 469 kts 278°
2026-05-08 15:14 50.34229 -10.05798 32028 ft 468 kts 278°
2026-05-08 15:14 50.35773 -10.15705 32032 ft 469 kts 278°
2026-05-08 15:15 50.37300 -10.25562 32041 ft 469 kts 278°
2026-05-08 15:15 50.38830 -10.35507 32030 ft 470 kts 278°
2026-05-08 15:16 50.40354 -10.45467 32027 ft 470 kts 278°
2026-05-08 15:16 50.41869 -10.55424 32038 ft 469 kts 278°
2026-05-08 15:17 50.43374 -10.65383 32030 ft 469 kts 278°
2026-05-08 15:17 50.44869 -10.75339 32040 ft 469 kts 277°
2026-05-08 15:18 50.46354 -10.85288 32029 ft 468 kts 277°
2026-05-08 15:18 50.47827 -10.95223 32037 ft 467 kts 277°
2026-05-08 15:19 50.49265 -11.04985 32033 ft 467 kts 277°
2026-05-08 15:19 50.50722 -11.14937 32037 ft 467 kts 277°
2026-05-08 15:20 50.52170 -11.24898 32043 ft 468 kts 277°
2026-05-08 15:20 50.53613 -11.34889 32037 ft 469 kts 277°
2026-05-08 15:21 50.55051 -11.44905 32039 ft 470 kts 277°
2026-05-08 15:21 50.56473 -11.54873 32035 ft 471 kts 277°
2026-05-08 15:22 50.57897 -11.64918 32040 ft 470 kts 277°
2026-05-08 15:22 50.59312 -11.74968 32053 ft 471 kts 276°
2026-05-08 15:23 50.60720 -11.85047 32040 ft 472 kts 276°
2026-05-08 15:23 50.62122 -11.95148 32040 ft 472 kts 276°
2026-05-08 15:24 50.63494 -12.05095 32038 ft 473 kts 276°
2026-05-08 15:24 50.64880 -12.15211 32034 ft 473 kts 276°
2026-05-08 15:25 50.66258 -12.25337 32046 ft 473 kts 276°
2026-05-08 15:25 50.67628 -12.35486 32043 ft 473 kts 276°
2026-05-08 15:26 50.68990 -12.45638 32036 ft 473 kts 276°
2026-05-08 15:26 50.70340 -12.55767 32037 ft 472 kts 275°
2026-05-08 15:27 50.71678 -12.65886 32039 ft 471 kts 275°
2026-05-08 15:27 50.73005 -12.75990 32048 ft 470 kts 275°
2026-05-08 15:28 50.74321 -12.86088 32043 ft 469 kts 275°
2026-05-08 15:28 50.75627 -12.96179 32042 ft 469 kts 275°
2026-05-08 15:29 50.76901 -13.06100 32049 ft 469 kts 275°
2026-05-08 15:29 50.78189 -13.16192 32045 ft 469 kts 275°
2026-05-08 15:30 50.79460 -13.26231 32063 ft 469 kts 275°
2026-05-08 15:30 50.80732 -13.36356 32068 ft 470 kts 275°
2026-05-08 15:31 50.81995 -13.46470 32048 ft 468 kts 275°
2026-05-08 15:31 50.83246 -13.56565 32047 ft 467 kts 275°
2026-05-08 15:32 50.84484 -13.66636 32049 ft 466 kts 275°
2026-05-08 15:32 50.85710 -13.76690 32067 ft 465 kts 275°
2026-05-08 15:33 50.86929 -13.86769 32060 ft 467 kts 275°
2026-05-08 15:33 50.88144 -13.96884 32054 ft 468 kts 275°
2026-05-08 15:34 50.89332 -14.06849 32061 ft 470 kts 275°
2026-05-08 15:34 50.90537 -14.17030 32055 ft 470 kts 275°
2026-05-08 15:35 50.91733 -14.27217 32087 ft 471 kts 274°
2026-05-08 15:35 50.92922 -14.37433 32076 ft 471 kts 274°
2026-05-08 15:36 50.94103 -14.47651 32059 ft 471 kts 274°
2026-05-08 15:36 50.95273 -14.57861 32059 ft 470 kts 274°
2026-05-08 15:37 50.96424 -14.67986 32059 ft 469 kts 274°
2026-05-08 15:37 50.97572 -14.78173 32066 ft 469 kts 274°
2026-05-08 15:38 50.98710 -14.88349 32066 ft 468 kts 274°
2026-05-08 15:38 50.99869 -14.98523 32065 ft 470 kts 276°
2026-05-08 15:39 51.01775 -15.08352 32074 ft 477 kts 283°
2026-05-08 15:39 51.04054 -15.18263 32070 ft 478 kts 283°
2026-05-08 15:40 51.06318 -15.28190 32076 ft 478 kts 283°
2026-05-08 15:40 51.08547 -15.38142 32081 ft 477 kts 283°
2026-05-08 15:41 51.10751 -15.48089 32077 ft 476 kts 283°
2026-05-08 15:41 51.12939 -15.58024 32078 ft 475 kts 283°
2026-05-08 15:42 51.15114 -15.67944 32078 ft 474 kts 283°
2026-05-08 15:42 51.17279 -15.77868 32082 ft 474 kts 283°
2026-05-08 15:43 51.19435 -15.87798 32098 ft 474 kts 283°
2026-05-08 15:43 51.21588 -15.97759 32092 ft 475 kts 283°
2026-05-08 15:44 51.23687 -16.07515 32089 ft 476 kts 283°
2026-05-08 15:44 51.25825 -16.17500 32099 ft 475 kts 283°
2026-05-08 15:45 51.27955 -16.27496 32102 ft 476 kts 283°
2026-05-08 15:45 51.30077 -16.37509 32091 ft 476 kts 283°
2026-05-08 15:46 51.32189 -16.47520 32112 ft 475 kts 283°
2026-05-08 15:46 51.34293 -16.57544 32103 ft 476 kts 283°
2026-05-08 15:47 51.36388 -16.67574 32101 ft 475 kts 283°
2026-05-08 15:47 51.38471 -16.77594 32099 ft 474 kts 283°
2026-05-08 15:48 51.41566 -16.92576 32107 ft 471 kts 283°
2026-05-08 15:49 51.43580 -17.02391 32138 ft 471 kts 283°
2026-05-08 15:49 51.45617 -17.12372 32130 ft 472 kts 283°
2026-05-08 15:50 51.47653 -17.22398 32124 ft 474 kts 283°
2026-05-08 15:50 51.49687 -17.32459 32140 ft 474 kts 283°
2026-05-08 15:51 51.51712 -17.42525 32120 ft 473 kts 283°
2026-05-08 15:51 51.53722 -17.52569 32124 ft 472 kts 282°
2026-05-08 15:52 51.55720 -17.62605 32153 ft 471 kts 283°
2026-05-08 15:52 51.57705 -17.72632 32125 ft 470 kts 282°
2026-05-08 15:53 51.59678 -17.82647 32151 ft 470 kts 282°
2026-05-08 15:53 51.61642 -17.92672 32153 ft 470 kts 282°
2026-05-08 15:54 51.63565 -18.02537 32143 ft 470 kts 282°
2026-05-08 15:54 51.65512 -18.12570 32152 ft 469 kts 282°
2026-05-08 15:55 51.67444 -18.22587 32170 ft 468 kts 283°
2026-05-08 15:55 51.70324 -18.37611 32158 ft 468 kts 283°
2026-05-08 15:56 51.72218 -18.47561 32168 ft 467 kts 282°
2026-05-08 15:56 51.74130 -18.57658 32174 ft 468 kts 282°
2026-05-08 15:57 51.76022 -18.67705 32183 ft 468 kts 283°
2026-05-08 15:57 51.77893 -18.77689 32187 ft 468 kts 283°
2026-05-08 15:58 51.79768 -18.87750 32175 ft 467 kts 283°
2026-05-08 15:58 51.81630 -18.97795 32183 ft 467 kts 283°
2026-05-08 15:59 51.83453 -19.07684 32183 ft 466 kts 283°
2026-05-08 15:59 51.85297 -19.17744 32181 ft 467 kts 283°
2026-05-08 16:00 51.87134 -19.27812 32199 ft 467 kts 283°
2026-05-08 16:00 51.88962 -19.37893 32203 ft 467 kts 282°
2026-05-08 16:01 51.90782 -19.47988 32199 ft 467 kts 282°
2026-05-08 16:01 51.92597 -19.58112 32209 ft 469 kts 283°
2026-05-08 16:02 51.94103 -19.66557 32200 ft 470 kts 283°
2026-05-08 16:02 51.95908 -19.76720 32207 ft 469 kts 283°
2026-05-08 16:03 51.97704 -19.86891 32207 ft 469 kts 282°
2026-05-08 16:03 51.99488 -19.97054 32209 ft 468 kts 283°
2026-05-08 16:04 52.01638 -20.06849 32222 ft 471 kts 291°
2026-05-08 16:04 52.04154 -20.16695 32219 ft 473 kts 291°
2026-05-08 16:05 52.06679 -20.26599 32222 ft 475 kts 291°
2026-05-08 16:05 52.09176 -20.36550 32221 ft 476 kts 291°
2026-05-08 16:06 52.11655 -20.46524 32223 ft 475 kts 290°
2026-05-08 16:06 52.14116 -20.56489 32231 ft 474 kts 290°
2026-05-08 16:07 52.16565 -20.66456 32230 ft 474 kts 291°
2026-05-08 16:07 52.19002 -20.76398 32230 ft 471 kts 291°
2026-05-08 16:08 52.21420 -20.86318 32239 ft 471 kts 291°
2026-05-08 16:08 52.23828 -20.96241 32250 ft 470 kts 291°
2026-05-08 16:09 52.26185 -21.05996 32253 ft 470 kts 291°
2026-05-08 16:09 52.28580 -21.15949 32260 ft 470 kts 291°
2026-05-08 16:10 52.30957 -21.25879 32243 ft 469 kts 292°
2026-05-08 16:10 52.33317 -21.35782 32256 ft 467 kts 293°
2026-05-08 16:11 52.35667 -21.45695 32261 ft 468 kts 295°
2026-05-08 16:11 52.38002 -21.55574 32272 ft 469 kts 293°
2026-05-08 16:12 52.40353 -21.65569 32271 ft 472 kts 293°
2026-05-08 16:12 52.42697 -21.75605 32281 ft 472 kts 293°
2026-05-08 16:13 52.45039 -21.85654 32277 ft 471 kts 294°
2026-05-08 16:13 52.47362 -21.95686 32260 ft 470 kts 294°
2026-05-08 16:14 52.49643 -22.05561 32285 ft 470 kts 294°
2026-05-08 16:14 52.51951 -22.15608 32286 ft 471 kts 294°
2026-05-08 16:15 52.54254 -22.25685 32292 ft 472 kts 294°
2026-05-08 16:15 52.56551 -22.35784 32299 ft 472 kts 294°
2026-05-08 16:16 52.58843 -22.45910 32297 ft 473 kts 294°
2026-05-08 16:16 52.61124 -22.56043 32299 ft 472 kts 295°
2026-05-08 16:17 52.63013 -22.64462 32312 ft 471 kts 296°
2026-05-08 16:17 52.65653 -22.76290 32316 ft 471 kts 296°
2026-05-08 16:18 52.67902 -22.86417 32314 ft 470 kts 296°
2026-05-08 16:18 52.70138 -22.96537 32315 ft 470 kts 296°
2026-05-08 16:19 52.72330 -23.06505 32323 ft 470 kts 296°
2026-05-08 16:19 52.74531 -23.16566 32316 ft 469 kts 296°
2026-05-08 16:20 52.76738 -23.26706 32296 ft 469 kts 298°
2026-05-08 16:20 52.78930 -23.36829 32327 ft 468 kts 298°
2026-05-08 16:21 52.81113 -23.46950 32343 ft 467 kts 298°
2026-05-08 16:21 52.83286 -23.57072 32342 ft 467 kts 298°
2026-05-08 16:22 52.85451 -23.67213 32343 ft 467 kts 298°
2026-05-08 16:22 52.87603 -23.77351 32345 ft 466 kts 298°
2026-05-08 16:23 52.89746 -23.87487 32349 ft 466 kts 298°
2026-05-08 16:23 52.91875 -23.97611 32348 ft 465 kts 298°
2026-05-08 16:24 52.93955 -24.07557 32351 ft 464 kts 298°
2026-05-08 16:24 52.96057 -24.17653 32356 ft 463 kts 298°
2026-05-08 16:25 52.98149 -24.27749 32366 ft 463 kts 298°
2026-05-08 16:25 53.00226 -24.37825 32340 ft 462 kts 298°
2026-05-08 16:26 53.02292 -24.47905 32365 ft 461 kts 298°
2026-05-08 16:26 53.04335 -24.57911 32367 ft 460 kts 298°
2026-05-08 16:27 53.06378 -24.67978 32367 ft 459 kts 298°
2026-05-08 16:27 53.08409 -24.78034 32378 ft 458 kts 298°
2026-05-08 16:28 53.10429 -24.88087 32388 ft 458 kts 298°
2026-05-08 16:28 53.12442 -24.98152 32356 ft 458 kts 297°
2026-05-08 16:29 53.14411 -25.08050 32391 ft 458 kts 297°
2026-05-08 16:29 53.16404 -25.18125 32394 ft 458 kts 297°
2026-05-08 16:30 53.18387 -25.28200 32402 ft 458 kts 297°
2026-05-08 16:30 53.20362 -25.38289 32412 ft 457 kts 296°
2026-05-08 16:31 53.22327 -25.48379 32402 ft 457 kts 296°
2026-05-08 16:31 53.24283 -25.58472 32413 ft 457 kts 296°
2026-05-08 16:32 53.26230 -25.68574 32406 ft 457 kts 296°
2026-05-08 16:32 53.28169 -25.78684 32417 ft 457 kts 296°
2026-05-08 16:33 53.30098 -25.88802 32417 ft 457 kts 296°
2026-05-08 16:33 53.32021 -25.98936 32423 ft 457 kts 296°
2026-05-08 16:34 53.33900 -26.08900 32414 ft 456 kts 296°
2026-05-08 16:34 53.35801 -26.19029 32420 ft 456 kts 296°
2026-05-08 16:35 53.37693 -26.29165 32422 ft 456 kts 296°
2026-05-08 16:35 53.39575 -26.39303 32429 ft 455 kts 296°
2026-05-08 16:36 53.41445 -26.49434 32430 ft 455 kts 295°
2026-05-08 16:36 53.43307 -26.59574 32437 ft 455 kts 295°
2026-05-08 16:37 53.45160 -26.69720 32437 ft 455 kts 295°
2026-05-08 16:37 53.47002 -26.79871 32428 ft 454 kts 296°
2026-05-08 16:38 53.48837 -26.90026 32439 ft 455 kts 296°
2026-05-08 16:38 53.50654 -27.00139 32449 ft 456 kts 296°
2026-05-08 16:39 53.52460 -27.10248 32457 ft 457 kts 296°
2026-05-08 16:39 53.54277 -27.20479 32452 ft 457 kts 296°
2026-05-08 16:40 53.56087 -27.30729 32438 ft 457 kts 296°
2026-05-08 16:40 53.57887 -27.40983 32465 ft 457 kts 296°
2026-05-08 16:41 53.59678 -27.51245 32466 ft 457 kts 296°
2026-05-08 16:42 53.62344 -27.66629 32460 ft 455 kts 296°
2026-05-08 16:42 53.64112 -27.76886 32516 ft 460 kts 295°
2026-05-08 16:42 53.65006 -27.82086 32794 ft 462 kts 295°
2026-05-08 16:43 53.65892 -27.87277 33260 ft 460 kts 295°
2026-05-08 16:43 53.66759 -27.92381 33754 ft 457 kts 295°
2026-05-08 16:43 53.67628 -27.97519 34248 ft 454 kts 295°
2026-05-08 16:43 53.68462 -28.02455 34641 ft 453 kts 295°
2026-05-08 16:44 53.69325 -28.07565 34921 ft 453 kts 295°
2026-05-08 16:44 53.70189 -28.12685 35168 ft 454 kts 295°
2026-05-08 16:44 53.71053 -28.17821 35396 ft 455 kts 294°
2026-05-08 16:44 53.71913 -28.22955 35699 ft 454 kts 294°
2026-05-08 16:45 53.72767 -28.28076 35979 ft 453 kts 294°
2026-05-08 16:45 53.73619 -28.33200 36268 ft 453 kts 294°
2026-05-08 16:45 53.74471 -28.38330 36407 ft 455 kts 294°
2026-05-08 16:46 53.76179 -28.48662 36475 ft 456 kts 293°
2026-05-08 16:46 53.77866 -28.58958 36483 ft 453 kts 293°
2026-05-08 16:47 53.79536 -28.69201 36489 ft 451 kts 293°
2026-05-08 16:47 53.81194 -28.79422 36495 ft 450 kts 293°
2026-05-08 16:48 53.82845 -28.89651 36494 ft 451 kts 293°
2026-05-08 16:48 53.84208 -28.98156 36492 ft 450 kts 292°
2026-05-08 16:49 53.85816 -29.08235 36493 ft 451 kts 292°
2026-05-08 16:49 53.87444 -29.18508 36499 ft 452 kts 292°
2026-05-08 16:50 53.89067 -29.28813 36496 ft 453 kts 292°
2026-05-08 16:50 53.90685 -29.39151 36499 ft 454 kts 292°
2026-05-08 16:51 53.92294 -29.49506 36499 ft 454 kts 292°
2026-05-08 16:51 53.93898 -29.59885 36480 ft 454 kts 292°
2026-05-08 16:52 53.95487 -29.70239 36499 ft 452 kts 291°
2026-05-08 16:52 53.97062 -29.80564 36500 ft 451 kts 291°
2026-05-08 16:53 53.99404 -29.96026 36507 ft 450 kts 291°
2026-05-08 16:53 54.00646 -30.06316 36513 ft 454 kts 286°
2026-05-08 16:54 54.01597 -30.16936 36505 ft 455 kts 286°
2026-05-08 16:54 54.02530 -30.27577 36508 ft 455 kts 286°
2026-05-08 16:55 54.03469 -30.38204 36480 ft 453 kts 286°
2026-05-08 16:55 54.04405 -30.48789 36502 ft 452 kts 286°
2026-05-08 16:56 54.05335 -30.59367 36513 ft 452 kts 286°
2026-05-08 16:56 54.06255 -30.69944 36525 ft 452 kts 286°
2026-05-08 16:57 54.07159 -30.80453 36515 ft 452 kts 285°
2026-05-08 16:57 54.08065 -30.91109 36520 ft 452 kts 285°
2026-05-08 16:58 54.08941 -31.01524 36519 ft 452 kts 285°
2026-05-08 16:58 54.09822 -31.12111 36503 ft 451 kts 286°
2026-05-08 16:59 54.10684 -31.22599 36515 ft 449 kts 286°
2026-05-08 16:59 54.11542 -31.33134 36522 ft 448 kts 285°
2026-05-08 17:00 54.12388 -31.43651 36524 ft 448 kts 285°
2026-05-08 17:00 54.13225 -31.54161 36525 ft 447 kts 285°
2026-05-08 17:01 54.14052 -31.64666 36520 ft 447 kts 285°
2026-05-08 17:01 54.14870 -31.75180 36498 ft 447 kts 285°
2026-05-08 17:02 54.15677 -31.85679 36514 ft 446 kts 285°
2026-05-08 17:02 54.16474 -31.96172 36512 ft 445 kts 286°
2026-05-08 17:03 54.17245 -32.06449 36512 ft 444 kts 286°
2026-05-08 17:03 54.18020 -32.16896 36508 ft 443 kts 286°
2026-05-08 17:04 54.18785 -32.27322 36509 ft 442 kts 285°
2026-05-08 17:04 54.19540 -32.37738 36510 ft 442 kts 285°
2026-05-08 17:05 54.20285 -32.48148 36510 ft 441 kts 286°
2026-05-08 17:05 54.21020 -32.58554 36509 ft 441 kts 286°
2026-05-08 17:06 54.21746 -32.68955 36509 ft 441 kts 286°
2026-05-08 17:06 54.22463 -32.79358 36509 ft 441 kts 286°
2026-05-08 17:07 54.23166 -32.89705 36509 ft 441 kts 286°
2026-05-08 17:07 54.23864 -33.00087 36510 ft 442 kts 286°
2026-05-08 17:08 54.24546 -33.10385 36511 ft 442 kts 286°
2026-05-08 17:08 54.25228 -33.20826 36504 ft 442 kts 287°
2026-05-08 17:09 54.25902 -33.31279 36507 ft 442 kts 286°
2026-05-08 17:09 54.26568 -33.41746 36511 ft 443 kts 286°
2026-05-08 17:10 54.27225 -33.52232 36500 ft 443 kts 286°
2026-05-08 17:10 54.27872 -33.62710 36505 ft 443 kts 286°
2026-05-08 17:11 54.28510 -33.73186 36506 ft 443 kts 286°
2026-05-08 17:11 54.29139 -33.83657 36474 ft 442 kts 286°
2026-05-08 17:12 54.29758 -33.94121 36501 ft 442 kts 285°
2026-05-08 17:12 54.30357 -34.04399 36506 ft 441 kts 285°
2026-05-08 17:13 54.30958 -34.14863 36504 ft 441 kts 285°
2026-05-08 17:13 54.31550 -34.25325 36504 ft 442 kts 285°
2026-05-08 17:14 54.32133 -34.35793 36497 ft 441 kts 285°
2026-05-08 17:14 54.32705 -34.46250 36502 ft 441 kts 285°
2026-05-08 17:15 54.33268 -34.56701 36506 ft 440 kts 285°
2026-05-08 17:15 54.33822 -34.67149 36505 ft 440 kts 285°
2026-05-08 17:16 54.34367 -34.77596 36496 ft 440 kts 285°
2026-05-08 17:16 54.34903 -34.88052 36500 ft 440 kts 285°
2026-05-08 17:17 54.35426 -34.98442 36496 ft 441 kts 285°
2026-05-08 17:17 54.35940 -35.08810 36496 ft 441 kts 284°
2026-05-08 17:18 54.36445 -35.19207 36493 ft 440 kts 284°
2026-05-08 17:18 54.36943 -35.29656 36487 ft 439 kts 284°
2026-05-08 17:19 54.37433 -35.40097 36490 ft 439 kts 284°
2026-05-08 17:19 54.37914 -35.50533 36486 ft 439 kts 284°
2026-05-08 17:20 54.38385 -35.60968 36485 ft 439 kts 284°
2026-05-08 17:20 54.38848 -35.71415 36486 ft 439 kts 284°
2026-05-08 17:21 54.39301 -35.81865 36480 ft 439 kts 284°
2026-05-08 17:21 54.39746 -35.92318 36428 ft 439 kts 283°
2026-05-08 17:22 54.40172 -36.02589 36477 ft 438 kts 282°
2026-05-08 17:22 54.40599 -36.13026 36467 ft 438 kts 282°
2026-05-08 17:23 54.41016 -36.23471 36465 ft 439 kts 282°
2026-05-08 17:23 54.41425 -36.33928 36468 ft 439 kts 282°
2026-05-08 17:24 54.41824 -36.44390 36454 ft 439 kts 282°
2026-05-08 17:24 54.42215 -36.54870 36463 ft 440 kts 282°
2026-05-08 17:25 54.42597 -36.65354 36447 ft 440 kts 282°
2026-05-08 17:25 54.42970 -36.75837 36448 ft 440 kts 281°
2026-05-08 17:26 54.43333 -36.86328 36453 ft 440 kts 281°
2026-05-08 17:26 54.43685 -36.96750 36447 ft 440 kts 281°
2026-05-08 17:27 54.44026 -37.07082 36445 ft 440 kts 281°
2026-05-08 17:27 54.44363 -37.17577 36444 ft 440 kts 281°
2026-05-08 17:28 54.44691 -37.28072 36439 ft 440 kts 281°
2026-05-08 17:28 54.45009 -37.38564 36428 ft 439 kts 280°
2026-05-08 17:29 54.45318 -37.49050 36433 ft 439 kts 280°
2026-05-08 17:29 54.45618 -37.59525 36432 ft 438 kts 279°
2026-05-08 17:30 54.45907 -37.69975 36421 ft 437 kts 279°
2026-05-08 17:30 54.46187 -37.80399 36417 ft 436 kts 279°
2026-05-08 17:31 54.46458 -37.90793 36414 ft 435 kts 279°
2026-05-08 17:31 54.46715 -38.01011 36415 ft 435 kts 279°
2026-05-08 17:32 54.46968 -38.11383 36402 ft 434 kts 278°
2026-05-08 17:32 54.47211 -38.21756 36408 ft 434 kts 278°
2026-05-08 17:33 54.47446 -38.32143 36400 ft 435 kts 278°
2026-05-08 17:33 54.47672 -38.42535 36393 ft 435 kts 277°
2026-05-08 17:34 54.47889 -38.52945 36394 ft 436 kts 277°
2026-05-08 17:34 54.48097 -38.63361 36388 ft 436 kts 277°
2026-05-08 17:35 54.48264 -38.72017 36383 ft 436 kts 277°
2026-05-08 17:35 54.48488 -38.84209 36384 ft 437 kts 277°
2026-05-08 17:36 54.48640 -38.92899 36376 ft 438 kts 277°
2026-05-08 17:36 54.48812 -39.03205 36367 ft 439 kts 277°
2026-05-08 17:37 54.48979 -39.13708 36371 ft 440 kts 277°
2026-05-08 17:37 54.49136 -39.24217 36365 ft 440 kts 276°
2026-05-08 17:38 54.49284 -39.34738 36356 ft 440 kts 276°
2026-05-08 17:38 54.49423 -39.45252 36335 ft 440 kts 276°
2026-05-08 17:39 54.49553 -39.55773 36340 ft 439 kts 276°
2026-05-08 17:39 54.49674 -39.66280 36344 ft 439 kts 276°
2026-05-08 17:40 54.49785 -39.76709 36337 ft 439 kts 276°
2026-05-08 17:40 54.49888 -39.87215 36336 ft 439 kts 276°
2026-05-08 17:41 54.49983 -39.97718 36331 ft 439 kts 275°
2026-05-08 17:41 54.49988 -40.08045 36323 ft 439 kts 274°
2026-05-08 17:42 54.49868 -40.18528 36311 ft 437 kts 272°
2026-05-08 17:42 54.49735 -40.28965 36316 ft 435 kts 272°
2026-05-08 17:43 54.49609 -40.39355 36305 ft 434 kts 273°
2026-05-08 17:43 54.49484 -40.49710 36318 ft 433 kts 272°
2026-05-08 17:44 54.49352 -40.60057 36311 ft 432 kts 272°
2026-05-08 17:44 54.49211 -40.70397 36295 ft 433 kts 272°
2026-05-08 17:45 54.49062 -40.80748 36298 ft 433 kts 272°
2026-05-08 17:45 54.48903 -40.91104 36270 ft 433 kts 272°
2026-05-08 17:46 54.48737 -41.01296 36280 ft 434 kts 271°
2026-05-08 17:46 54.48560 -41.11676 36282 ft 435 kts 271°
2026-05-08 17:47 54.48373 -41.22075 36282 ft 435 kts 271°
2026-05-08 17:47 54.48211 -41.30720 36280 ft 435 kts 271°
2026-05-08 17:48 54.47973 -41.42883 36278 ft 436 kts 271°
2026-05-08 17:48 54.47759 -41.53295 36271 ft 436 kts 271°
2026-05-08 17:49 54.47538 -41.63631 36277 ft 435 kts 271°
2026-05-08 17:49 54.47307 -41.74023 36264 ft 434 kts 270°
2026-05-08 17:50 54.47067 -41.84387 36248 ft 433 kts 270°
2026-05-08 17:50 54.46819 -41.94717 36253 ft 432 kts 270°
2026-05-08 17:51 54.46567 -42.04873 36233 ft 431 kts 270°
2026-05-08 17:51 54.46303 -42.15166 36234 ft 431 kts 270°
2026-05-08 17:52 54.46031 -42.25443 36222 ft 431 kts 270°
2026-05-08 17:53 54.45606 -42.40861 36227 ft 431 kts 269°
2026-05-08 17:53 54.45312 -42.51146 36213 ft 431 kts 269°
2026-05-08 17:54 54.45009 -42.61433 36221 ft 431 kts 269°
2026-05-08 17:54 54.44696 -42.71712 36197 ft 431 kts 269°
2026-05-08 17:55 54.44376 -42.81976 36185 ft 430 kts 269°
2026-05-08 17:55 54.44048 -42.92225 36180 ft 430 kts 268°
2026-05-08 17:56 54.43716 -43.02300 36194 ft 429 kts 268°
2026-05-08 17:56 54.43371 -43.12525 36176 ft 429 kts 268°
2026-05-08 17:57 54.43018 -43.22744 36179 ft 429 kts 268°
2026-05-08 17:57 54.42655 -43.32969 36164 ft 429 kts 268°
2026-05-08 17:58 54.42286 -43.43181 36167 ft 429 kts 267°
2026-05-08 17:58 54.41906 -43.53390 36145 ft 428 kts 267°
2026-05-08 17:59 54.41519 -43.63572 36142 ft 427 kts 266°
2026-05-08 17:59 54.41124 -43.73749 36135 ft 427 kts 266°
2026-05-08 18:00 54.40720 -43.83919 36128 ft 427 kts 266°
2026-05-08 18:00 54.40099 -43.99180 36130 ft 428 kts 266°
2026-05-08 18:01 54.39683 -44.09131 36120 ft 428 kts 266°
2026-05-08 18:01 54.39248 -44.19319 36113 ft 428 kts 266°
2026-05-08 18:02 54.38878 -44.27863 36117 ft 429 kts 265°
2026-05-08 18:02 54.38353 -44.39716 36099 ft 429 kts 265°
2026-05-08 18:03 54.37892 -44.49909 36105 ft 428 kts 265°
2026-05-08 18:03 54.37423 -44.60087 36091 ft 428 kts 265°
2026-05-08 18:04 54.36946 -44.70267 36081 ft 428 kts 265°
2026-05-08 18:04 54.36460 -44.80440 36067 ft 428 kts 265°
2026-05-08 18:05 54.35966 -44.90600 36079 ft 428 kts 265°
2026-05-08 18:05 54.35472 -45.00597 36070 ft 428 kts 264°
2026-05-08 18:06 54.34962 -45.10763 36056 ft 428 kts 263°
2026-05-08 18:06 54.34442 -45.20922 36049 ft 428 kts 263°
2026-05-08 18:07 54.33913 -45.31076 36038 ft 428 kts 263°
2026-05-08 18:07 54.33377 -45.41220 36025 ft 427 kts 263°
2026-05-08 18:08 54.32833 -45.51354 36013 ft 427 kts 263°
2026-05-08 18:08 54.32281 -45.61474 36013 ft 427 kts 263°
2026-05-08 18:09 54.31721 -45.71593 36013 ft 427 kts 263°
2026-05-08 18:09 54.31151 -45.81710 35989 ft 427 kts 263°
2026-05-08 18:10 54.30578 -45.91752 36005 ft 427 kts 262°
2026-05-08 18:10 54.30002 -46.01694 35995 ft 427 kts 262°
2026-05-08 18:11 54.29408 -46.11796 35965 ft 426 kts 262°
2026-05-08 18:11 54.28806 -46.21885 35963 ft 426 kts 262°
2026-05-08 18:12 54.28196 -46.31964 35962 ft 425 kts 262°
2026-05-08 18:12 54.27580 -46.42028 35942 ft 425 kts 261°
2026-05-08 18:13 54.26954 -46.52081 35941 ft 425 kts 261°
2026-05-08 18:13 54.26320 -46.62128 35936 ft 425 kts 261°
2026-05-08 18:14 54.25679 -46.72164 35932 ft 424 kts 261°
2026-05-08 18:14 54.25030 -46.82193 35925 ft 424 kts 260°
2026-05-08 18:15 54.24372 -46.92212 35913 ft 424 kts 260°
2026-05-08 18:15 54.23719 -47.02053 35924 ft 423 kts 259°
2026-05-08 18:16 54.23047 -47.12044 35906 ft 423 kts 259°
2026-05-08 18:16 54.22366 -47.22023 35899 ft 423 kts 259°
2026-05-08 18:17 54.21678 -47.31998 35898 ft 423 kts 259°
2026-05-08 18:17 54.20982 -47.41969 35880 ft 423 kts 259°
2026-05-08 18:18 54.20277 -47.51937 35883 ft 423 kts 259°
2026-05-08 18:18 54.19564 -47.61911 35894 ft 424 kts 258°
2026-05-08 18:19 54.18841 -47.71892 35878 ft 424 kts 258°
2026-05-08 18:19 54.18110 -47.81876 35862 ft 424 kts 258°
2026-05-08 18:20 54.17371 -47.91853 35863 ft 424 kts 258°
2026-05-08 18:20 54.16636 -48.01664 35863 ft 424 kts 258°
2026-05-08 18:21 54.15881 -48.11631 35852 ft 424 kts 258°
2026-05-08 18:21 54.15117 -48.21600 35844 ft 423 kts 258°
2026-05-08 18:22 54.14476 -48.29875 35843 ft 423 kts 257°
2026-05-08 18:22 54.13698 -48.39827 35868 ft 423 kts 257°
2026-05-08 18:23 54.12783 -48.51391 35833 ft 423 kts 257°
2026-05-08 18:23 54.12118 -48.59708 35824 ft 423 kts 257°
2026-05-08 18:24 54.11318 -48.69621 35827 ft 422 kts 257°
2026-05-08 18:24 54.10510 -48.79519 35813 ft 421 kts 256°
2026-05-08 18:25 54.09695 -48.89396 35810 ft 421 kts 256°
2026-05-08 18:25 54.08873 -48.99264 35810 ft 421 kts 256°
2026-05-08 18:26 54.08056 -49.08978 35807 ft 421 kts 256°
2026-05-08 18:26 54.07223 -49.18777 35808 ft 421 kts 256°
2026-05-08 18:27 54.06514 -49.27041 35807 ft 421 kts 256°
2026-05-08 18:27 54.05521 -49.38503 35794 ft 421 kts 256°
2026-05-08 18:28 54.04658 -49.48357 35786 ft 421 kts 256°
2026-05-08 18:28 54.03787 -49.58211 35778 ft 421 kts 256°
2026-05-08 18:29 54.02908 -49.68065 35803 ft 421 kts 255°
2026-05-08 18:29 54.02021 -49.77908 35781 ft 421 kts 255°
2026-05-08 18:30 54.01127 -49.87748 35785 ft 421 kts 255°
2026-05-08 18:30 54.00141 -49.97532 35776 ft 417 kts 251°
2026-05-08 18:31 53.98429 -50.06696 35791 ft 411 kts 243°
2026-05-08 18:31 53.96241 -50.15656 35766 ft 410 kts 243°
2026-05-08 18:32 53.94054 -50.24587 35759 ft 409 kts 243°
2026-05-08 18:32 53.91876 -50.33494 35769 ft 408 kts 242°
2026-05-08 18:33 53.89699 -50.42381 35754 ft 408 kts 242°
2026-05-08 18:33 53.87523 -50.51242 35754 ft 407 kts 242°
2026-05-08 18:34 53.85344 -50.60077 35745 ft 406 kts 242°
2026-05-08 18:34 53.83160 -50.68895 35747 ft 406 kts 242°
2026-05-08 18:35 53.80968 -50.77710 35760 ft 407 kts 242°
2026-05-08 18:35 53.78767 -50.86527 35739 ft 407 kts 242°
2026-05-08 18:36 53.76557 -50.95345 35733 ft 407 kts 242°
2026-05-08 18:36 53.74379 -51.04002 35728 ft 408 kts 241°
2026-05-08 18:37 53.72153 -51.12814 35721 ft 408 kts 241°
2026-05-08 18:37 53.69921 -51.21614 35725 ft 408 kts 241°
2026-05-08 18:38 53.67683 -51.30417 35740 ft 409 kts 240°
2026-05-08 18:38 53.65432 -51.39218 35730 ft 408 kts 240°
2026-05-08 18:39 53.63180 -51.47992 35718 ft 407 kts 240°
2026-05-08 18:39 53.60928 -51.56733 35720 ft 406 kts 240°
2026-05-08 18:40 53.58674 -51.65450 35717 ft 406 kts 240°
2026-05-08 18:40 53.56416 -51.74145 35715 ft 405 kts 240°
2026-05-08 18:41 53.54154 -51.82825 35722 ft 405 kts 239°
2026-05-08 18:41 53.51885 -51.91498 35714 ft 405 kts 239°
2026-05-08 18:42 53.49633 -52.00070 35711 ft 405 kts 239°
2026-05-08 18:42 53.47382 -52.08609 35710 ft 405 kts 239°
2026-05-08 18:43 53.45095 -52.17250 35709 ft 405 kts 239°
2026-05-08 18:43 53.42800 -52.25891 35727 ft 406 kts 239°
2026-05-08 18:44 53.40497 -52.34528 35715 ft 406 kts 239°
2026-05-08 18:44 53.38188 -52.43156 35751 ft 406 kts 239°
2026-05-08 18:45 53.35874 -52.51772 35714 ft 405 kts 239°
2026-05-08 18:45 53.33564 -52.60339 35708 ft 403 kts 239°
2026-05-08 18:46 53.31255 -52.68872 35699 ft 402 kts 239°
2026-05-08 18:46 53.28947 -52.77369 35723 ft 401 kts 238°
2026-05-08 18:47 53.26637 -52.85837 35703 ft 400 kts 238°
2026-05-08 18:47 53.24325 -52.94285 35700 ft 400 kts 238°
2026-05-08 18:48 53.22046 -53.02579 35701 ft 400 kts 238°
2026-05-08 18:48 53.19721 -53.11010 35701 ft 400 kts 238°
2026-05-08 18:49 53.17404 -53.19383 35701 ft 401 kts 238°
2026-05-08 18:49 53.15063 -53.27814 35712 ft 401 kts 238°
2026-05-08 18:50 53.12711 -53.36256 35700 ft 402 kts 238°
2026-05-08 18:50 53.10350 -53.44693 35698 ft 402 kts 238°
2026-05-08 18:51 53.07985 -53.53122 35772 ft 402 kts 238°
2026-05-08 18:51 53.05616 -53.61534 35700 ft 400 kts 238°
2026-05-08 18:52 53.03259 -53.69877 35689 ft 397 kts 237°
2026-05-08 18:52 53.00912 -53.78150 35693 ft 395 kts 237°
2026-05-08 18:53 52.98572 -53.86364 35687 ft 394 kts 237°
2026-05-08 18:53 52.96227 -53.94568 35692 ft 394 kts 237°
2026-05-08 18:54 52.93919 -54.02614 35684 ft 394 kts 237°
2026-05-08 18:54 52.91556 -54.10822 35690 ft 395 kts 237°
2026-05-08 18:55 52.87990 -54.23160 35699 ft 396 kts 237°
2026-05-08 18:56 52.85600 -54.31395 35687 ft 397 kts 237°
2026-05-08 18:56 52.83205 -54.39621 35687 ft 397 kts 237°
2026-05-08 18:57 52.80818 -54.47789 35687 ft 397 kts 237°
2026-05-08 18:57 52.78406 -54.56011 35686 ft 397 kts 237°
2026-05-08 18:58 52.75990 -54.64220 35741 ft 398 kts 236°
2026-05-08 18:58 52.73561 -54.72447 35694 ft 399 kts 236°
2026-05-08 18:59 52.71125 -54.80667 35687 ft 399 kts 236°
2026-05-08 18:59 52.68686 -54.88871 35682 ft 398 kts 236°
2026-05-08 19:00 52.66656 -54.95677 35684 ft 398 kts 236°
2026-05-08 19:00 52.63841 -55.05082 35688 ft 397 kts 235°
2026-05-08 19:01 52.61393 -55.13231 35697 ft 397 kts 235°
2026-05-08 19:01 52.58937 -55.21374 35685 ft 398 kts 235°
2026-05-08 19:02 52.56473 -55.29524 35684 ft 398 kts 235°
2026-05-08 19:02 52.54002 -55.37666 35683 ft 398 kts 235°
2026-05-08 19:03 52.51525 -55.45802 35677 ft 398 kts 234°
2026-05-08 19:03 52.49041 -55.53932 35663 ft 399 kts 234°
2026-05-08 19:04 52.46550 -55.62059 35655 ft 399 kts 234°
2026-05-08 19:04 52.44049 -55.70187 35722 ft 400 kts 235°
2026-05-08 19:05 52.41533 -55.78343 35659 ft 402 kts 234°
2026-05-08 19:05 52.39130 -55.86650 35659 ft 407 kts 238°
2026-05-08 19:06 52.36982 -55.95219 35651 ft 407 kts 238°
2026-05-08 19:06 52.34871 -56.03624 35649 ft 406 kts 238°
2026-05-08 19:07 52.32727 -56.12101 35647 ft 406 kts 238°
2026-05-08 19:07 52.30562 -56.20616 35650 ft 406 kts 238°
2026-05-08 19:08 52.28374 -56.29182 35636 ft 406 kts 238°
2026-05-08 19:08 52.26207 -56.37632 35646 ft 406 kts 238°
2026-05-08 19:09 52.24022 -56.46122 35645 ft 406 kts 238°
2026-05-08 19:09 52.21830 -56.54608 35665 ft 406 kts 238°
2026-05-08 19:10 52.19629 -56.63092 35646 ft 407 kts 238°
2026-05-08 19:10 52.17777 -56.70207 35648 ft 408 kts 237°
2026-05-08 19:11 52.15579 -56.78633 35642 ft 406 kts 237°
2026-05-08 19:11 52.13367 -56.87078 35643 ft 405 kts 237°
2026-05-08 19:12 52.11157 -56.95485 35645 ft 404 kts 237°
2026-05-08 19:12 52.08984 -57.03714 35669 ft 403 kts 236°
2026-05-08 19:13 52.06766 -57.12078 35658 ft 403 kts 236°
2026-05-08 19:13 52.04544 -57.20432 35650 ft 403 kts 236°
2026-05-08 19:14 52.02315 -57.28782 35655 ft 403 kts 236°
2026-05-08 19:14 52.00078 -57.37132 35644 ft 403 kts 236°
2026-05-08 19:15 51.97840 -57.45456 35650 ft 404 kts 236°
2026-05-08 19:15 51.95588 -57.53801 35674 ft 404 kts 236°
2026-05-08 19:16 51.93321 -57.62169 35660 ft 406 kts 236°
2026-05-08 19:16 51.91043 -57.70549 35653 ft 406 kts 236°
2026-05-08 19:17 51.88763 -57.78915 35639 ft 406 kts 235°
2026-05-08 19:17 51.86480 -57.87257 35645 ft 405 kts 235°
2026-05-08 19:18 51.84192 -57.95586 35654 ft 405 kts 235°
2026-05-08 19:18 51.81939 -58.03752 35664 ft 405 kts 235°
2026-05-08 19:19 51.79635 -58.12077 35648 ft 406 kts 235°
2026-05-08 19:19 51.77321 -58.20410 35644 ft 407 kts 235°
2026-05-08 19:20 51.75003 -58.28730 35649 ft 406 kts 235°
2026-05-08 19:20 51.72693 -58.36989 35644 ft 406 kts 235°
2026-05-08 19:21 51.70362 -58.45295 35688 ft 407 kts 235°
2026-05-08 19:21 51.68015 -58.53625 35659 ft 408 kts 235°
2026-05-08 19:22 51.65666 -58.61936 35642 ft 408 kts 234°
2026-05-08 19:22 51.63313 -58.70232 35645 ft 407 kts 234°
2026-05-08 19:23 51.60955 -58.78519 35643 ft 407 kts 234°
2026-05-08 19:23 51.58593 -58.86784 35642 ft 406 kts 234°
2026-05-08 19:24 51.56229 -58.95031 35654 ft 406 kts 234°
2026-05-08 19:24 51.53897 -59.03139 35654 ft 407 kts 234°
2026-05-08 19:25 51.51513 -59.11396 35647 ft 408 kts 234°
2026-05-08 19:25 51.49118 -59.19659 35641 ft 409 kts 234°
2026-05-08 19:26 51.46714 -59.27934 35639 ft 409 kts 234°
2026-05-08 19:26 51.44301 -59.36207 35642 ft 410 kts 234°
2026-05-08 19:27 51.41882 -59.44472 35656 ft 410 kts 234°
2026-05-08 19:27 51.39455 -59.52734 35643 ft 410 kts 234°
2026-05-08 19:28 51.37021 -59.60993 35639 ft 410 kts 234°
2026-05-08 19:28 51.34582 -59.69241 35634 ft 410 kts 233°
2026-05-08 19:29 51.32159 -59.77410 35644 ft 409 kts 234°
2026-05-08 19:29 51.29711 -59.85631 35632 ft 409 kts 233°
2026-05-08 19:30 51.27256 -59.93843 35646 ft 410 kts 233°
2026-05-08 19:30 51.24833 -60.01926 35644 ft 411 kts 233°
2026-05-08 19:31 51.22356 -60.10160 35650 ft 412 kts 233°
2026-05-08 19:31 51.19868 -60.18396 35645 ft 414 kts 234°
2026-05-08 19:32 51.17359 -60.26678 35635 ft 415 kts 234°
2026-05-08 19:32 51.14840 -60.34970 35655 ft 416 kts 234°
2026-05-08 19:33 51.12303 -60.43287 35645 ft 418 kts 234°
2026-05-08 19:33 51.09753 -60.51622 35645 ft 420 kts 234°
2026-05-08 19:34 51.07189 -60.59974 35645 ft 420 kts 234°
2026-05-08 19:34 51.04619 -60.68320 35643 ft 421 kts 234°
2026-05-08 19:35 51.02042 -60.76658 35644 ft 420 kts 234°
2026-05-08 19:35 50.99466 -60.84960 35655 ft 421 kts 235°
2026-05-08 19:36 50.96870 -60.93301 35648 ft 422 kts 235°
2026-05-08 19:36 50.94312 -61.01492 35701 ft 423 kts 236°
2026-05-08 19:37 50.91681 -61.09882 35661 ft 426 kts 236°
2026-05-08 19:37 50.89030 -61.18307 35662 ft 429 kts 236°
2026-05-08 19:38 50.86361 -61.26767 35678 ft 430 kts 236°
2026-05-08 19:38 50.83675 -61.35254 35665 ft 432 kts 236°
2026-05-08 19:39 50.80981 -61.43736 35670 ft 432 kts 236°
2026-05-08 19:39 50.78275 -61.52228 35675 ft 432 kts 236°
2026-05-08 19:40 50.75565 -61.60701 35663 ft 432 kts 236°
2026-05-08 19:40 50.72853 -61.69153 35665 ft 431 kts 236°
2026-05-08 19:41 50.70141 -61.77572 35674 ft 431 kts 236°
2026-05-08 19:41 50.67421 -61.85988 35681 ft 432 kts 236°
2026-05-08 19:42 50.64684 -61.94425 35685 ft 432 kts 236°
2026-05-08 19:42 50.61991 -62.02699 35678 ft 433 kts 236°
2026-05-08 19:43 50.59257 -62.11079 35687 ft 434 kts 236°
2026-05-08 19:43 50.56487 -62.19532 35693 ft 436 kts 236°
2026-05-08 19:44 50.53700 -62.28009 35686 ft 437 kts 236°
2026-05-08 19:44 50.50899 -62.36503 35682 ft 438 kts 236°
2026-05-08 19:45 50.48083 -62.45015 35686 ft 439 kts 236°
2026-05-08 19:45 50.45262 -62.53513 35685 ft 439 kts 236°
2026-05-08 19:46 50.42434 -62.62003 35690 ft 439 kts 236°
2026-05-08 19:46 50.38161 -62.74770 35693 ft 442 kts 237°
2026-05-08 19:47 50.35297 -62.83295 35681 ft 443 kts 237°
2026-05-08 19:47 50.32421 -62.91828 35679 ft 444 kts 237°
2026-05-08 19:48 50.29576 -63.00240 35683 ft 444 kts 237°
2026-05-08 19:48 50.26690 -63.08744 35682 ft 444 kts 237°
2026-05-08 19:49 50.23792 -63.17255 35682 ft 443 kts 237°
2026-05-08 19:49 50.20891 -63.25746 35685 ft 443 kts 237°
2026-05-08 19:50 50.17985 -63.34222 35690 ft 443 kts 236°
2026-05-08 19:50 50.15077 -63.42677 35692 ft 442 kts 236°
2026-05-08 19:51 50.12173 -63.51089 35703 ft 445 kts 237°
2026-05-08 19:51 50.09229 -63.59589 35695 ft 447 kts 237°
2026-05-08 19:52 50.06266 -63.68118 35695 ft 448 kts 237°
2026-05-08 19:52 50.03290 -63.76657 35693 ft 450 kts 237°
2026-05-08 19:53 50.00300 -63.85206 35698 ft 450 kts 237°
2026-05-08 19:53 49.97310 -63.93727 35698 ft 451 kts 237°
2026-05-08 19:54 49.94352 -64.02130 35700 ft 451 kts 237°
2026-05-08 19:54 49.91339 -64.10661 35700 ft 451 kts 237°
2026-05-08 19:55 49.88321 -64.19175 35702 ft 450 kts 237°
2026-05-08 19:55 49.85296 -64.27685 35702 ft 451 kts 237°
2026-05-08 19:56 49.82258 -64.36197 35708 ft 452 kts 237°
2026-05-08 19:56 49.79207 -64.44720 35705 ft 453 kts 237°
2026-05-08 19:57 49.76644 -64.51857 35709 ft 453 kts 237°
2026-05-08 19:57 49.73578 -64.60371 35710 ft 453 kts 237°
2026-05-08 19:58 49.70526 -64.68819 35712 ft 453 kts 237°
2026-05-08 19:58 49.67445 -64.77317 35714 ft 454 kts 237°
2026-05-08 19:59 49.64358 -64.85807 35715 ft 454 kts 237°
2026-05-08 19:59 49.61262 -64.94292 35715 ft 454 kts 237°
2026-05-08 20:00 49.58210 -65.02627 35736 ft 455 kts 238°
2026-05-08 20:00 49.55092 -65.11119 35741 ft 456 kts 238°
2026-05-08 20:01 49.51960 -65.19619 35733 ft 457 kts 238°
2026-05-08 20:01 49.48818 -65.28119 35735 ft 457 kts 238°
2026-05-08 20:02 49.45665 -65.36620 35734 ft 458 kts 238°
2026-05-08 20:02 49.42506 -65.45108 35736 ft 458 kts 237°
2026-05-08 20:03 49.39339 -65.53593 35735 ft 458 kts 238°
2026-05-08 20:03 49.36168 -65.62061 35747 ft 458 kts 238°
2026-05-08 20:04 49.32988 -65.70522 35742 ft 458 kts 238°
2026-05-08 20:04 49.29800 -65.78978 35751 ft 459 kts 238°
2026-05-08 20:05 49.26600 -65.87442 35752 ft 459 kts 238°
2026-05-08 20:05 49.23391 -65.95899 35747 ft 460 kts 238°
2026-05-08 20:06 49.20237 -66.04188 35753 ft 459 kts 238°
2026-05-08 20:06 49.17016 -66.12624 35764 ft 459 kts 238°
2026-05-08 20:07 49.13786 -66.21057 35762 ft 460 kts 238°
2026-05-08 20:07 49.10550 -66.29478 35766 ft 460 kts 238°
2026-05-08 20:08 49.07322 -66.37851 35759 ft 461 kts 238°
2026-05-08 20:08 49.04066 -66.46269 35789 ft 461 kts 238°
2026-05-08 20:09 49.00803 -66.54682 35780 ft 462 kts 238°
2026-05-08 20:09 48.97536 -66.63076 35769 ft 462 kts 238°
2026-05-08 20:10 48.94253 -66.71483 35772 ft 462 kts 238°
2026-05-08 20:10 48.90963 -66.79882 35769 ft 462 kts 238°
2026-05-08 20:11 48.87666 -66.88275 35770 ft 462 kts 238°
2026-05-08 20:11 48.84365 -66.96650 35771 ft 462 kts 238°
2026-05-08 20:12 48.81117 -67.04863 35775 ft 462 kts 238°
2026-05-08 20:12 48.77804 -67.13216 35775 ft 462 kts 238°
2026-05-08 20:13 48.74486 -67.21557 35773 ft 462 kts 238°
2026-05-08 20:13 48.71166 -67.29875 35772 ft 462 kts 238°
2026-05-08 20:14 48.67860 -67.38132 35781 ft 461 kts 238°
2026-05-08 20:14 48.64528 -67.46427 35778 ft 461 kts 238°
2026-05-08 20:15 48.61189 -67.54715 35772 ft 461 kts 238°
2026-05-08 20:15 48.57848 -67.62983 35778 ft 461 kts 238°
2026-05-08 20:16 48.54496 -67.71252 35778 ft 461 kts 238°
2026-05-08 20:16 48.51139 -67.79507 35774 ft 462 kts 238°
2026-05-08 20:17 48.47777 -67.87751 35784 ft 462 kts 238°
2026-05-08 20:17 48.44404 -67.95995 35785 ft 462 kts 238°
2026-05-08 20:18 48.41087 -68.04078 35781 ft 462 kts 238°
2026-05-08 20:18 48.37702 -68.12303 35780 ft 462 kts 238°
2026-05-08 20:19 48.34310 -68.20517 35790 ft 462 kts 238°
2026-05-08 20:19 48.30912 -68.28722 35779 ft 462 kts 238°
2026-05-08 20:20 48.27514 -68.36900 35787 ft 462 kts 238°
2026-05-08 20:20 48.24109 -68.45074 35790 ft 462 kts 238°
2026-05-08 20:21 48.20698 -68.53234 35793 ft 462 kts 238°
2026-05-08 20:21 48.17283 -68.61381 35797 ft 462 kts 238°
2026-05-08 20:22 48.13863 -68.69515 35785 ft 462 kts 238°
2026-05-08 20:22 48.11017 -68.76266 35792 ft 461 kts 238°
2026-05-08 20:23 48.07008 -68.85746 35791 ft 461 kts 238°
2026-05-08 20:23 48.03572 -68.93845 35790 ft 461 kts 238°
2026-05-08 20:24 48.00194 -69.01784 35784 ft 461 kts 238°
2026-05-08 20:24 47.96755 -69.09843 35792 ft 461 kts 238°
2026-05-08 20:25 47.93303 -69.17905 35790 ft 461 kts 238°
2026-05-08 20:25 47.89871 -69.25900 35796 ft 461 kts 238°
2026-05-08 20:26 47.86391 -69.33984 35800 ft 461 kts 238°
2026-05-08 20:26 47.82946 -69.41962 35796 ft 461 kts 238°
2026-05-08 20:27 47.79455 -69.50026 35797 ft 460 kts 238°
2026-05-08 20:27 47.75976 -69.57930 35795 ft 460 kts 235°
2026-05-08 20:28 47.71849 -69.65208 35802 ft 461 kts 229°
2026-05-08 20:28 47.67510 -69.72219 35793 ft 461 kts 229°
2026-05-08 20:29 47.63178 -69.79236 35797 ft 461 kts 229°
2026-05-08 20:29 47.58860 -69.86255 35802 ft 461 kts 229°
2026-05-08 20:30 47.54541 -69.93276 35802 ft 461 kts 229°
2026-05-08 20:30 47.50285 -70.00175 35796 ft 461 kts 229°
2026-05-08 20:31 47.45982 -70.07132 35802 ft 461 kts 229°
2026-05-08 20:31 47.41649 -70.14118 35800 ft 461 kts 229°
2026-05-08 20:32 47.37315 -70.21087 35804 ft 461 kts 229°
2026-05-08 20:32 47.32973 -70.28049 35799 ft 461 kts 230°
2026-05-08 20:33 47.28632 -70.34994 35809 ft 460 kts 229°
2026-05-08 20:33 47.24288 -70.41925 35808 ft 460 kts 229°
2026-05-08 20:34 47.19969 -70.48797 35811 ft 461 kts 229°
2026-05-08 20:35 47.13440 -70.59153 35816 ft 461 kts 229°
2026-05-08 20:35 47.09079 -70.66049 35817 ft 461 kts 229°
2026-05-08 20:36 47.04715 -70.72930 35822 ft 461 kts 229°
2026-05-08 20:36 47.00349 -70.79797 35816 ft 461 kts 229°
2026-05-08 20:37 46.95984 -70.86645 35829 ft 460 kts 229°
2026-05-08 20:37 46.91607 -70.93495 35827 ft 461 kts 229°
2026-05-08 20:38 46.87313 -71.00197 35827 ft 461 kts 229°
2026-05-08 20:38 46.82935 -71.07013 35817 ft 461 kts 229°
2026-05-08 20:39 46.78549 -71.13824 35827 ft 460 kts 229°
2026-05-08 20:39 46.74187 -71.20583 35828 ft 460 kts 229°
2026-05-08 20:40 46.69795 -71.27369 35824 ft 460 kts 229°
2026-05-08 20:40 46.67594 -71.30764 35548 ft 464 kts 230°
2026-05-08 20:40 46.65352 -71.34220 34900 ft 469 kts 229°
2026-05-08 20:40 46.63121 -71.37650 34373 ft 464 kts 229°
2026-05-08 20:41 46.60913 -71.41041 33843 ft 459 kts 229°
2026-05-08 20:41 46.58733 -71.44404 33214 ft 454 kts 230°
2026-05-08 20:41 46.56714 -71.47887 32671 ft 447 kts 234°
2026-05-08 20:41 46.54806 -71.51412 32149 ft 442 kts 234°
2026-05-08 20:42 46.52921 -71.54905 31629 ft 437 kts 234°
2026-05-08 20:42 46.51053 -71.58355 31113 ft 432 kts 234°
2026-05-08 20:42 46.49199 -71.61763 30611 ft 428 kts 234°
2026-05-08 20:42 46.47361 -71.65128 30132 ft 424 kts 234°
2026-05-08 20:43 46.45538 -71.68457 29586 ft 420 kts 234°
2026-05-08 20:43 46.43733 -71.71749 29032 ft 415 kts 233°
2026-05-08 20:43 46.41949 -71.74999 28534 ft 409 kts 233°
2026-05-08 20:43 46.40187 -71.78203 28044 ft 404 kts 233°
2026-05-08 20:44 46.38409 -71.81317 27558 ft 400 kts 230°
2026-05-08 20:44 46.36456 -71.84157 27126 ft 396 kts 226°
2026-05-08 20:44 46.34444 -71.86841 26671 ft 392 kts 225°
2026-05-08 20:44 46.32443 -71.89480 26234 ft 387 kts 225°
2026-05-08 20:45 46.30477 -71.92110 25789 ft 383 kts 226°
2026-05-08 20:45 46.29195 -71.93847 25507 ft 381 kts 226°
2026-05-08 20:45 46.27276 -71.96473 25084 ft 379 kts 226°
2026-05-08 20:45 46.25374 -71.99090 24647 ft 377 kts 226°
2026-05-08 20:46 46.23540 -72.01611 24238 ft 377 kts 226°
2026-05-08 20:46 46.21639 -72.04222 23818 ft 377 kts 226°
2026-05-08 20:46 46.19742 -72.06821 23387 ft 375 kts 226°
2026-05-08 20:46 46.17855 -72.09401 22879 ft 372 kts 226°
2026-05-08 20:47 46.15986 -72.11955 22437 ft 368 kts 226°
2026-05-08 20:47 46.14138 -72.14478 22037 ft 364 kts 226°
2026-05-08 20:47 46.12311 -72.16971 21613 ft 360 kts 226°
2026-05-08 20:47 46.10498 -72.19444 21208 ft 358 kts 226°
2026-05-08 20:48 46.08693 -72.21904 20801 ft 357 kts 226°
2026-05-08 20:48 46.06890 -72.24359 20398 ft 356 kts 226°
2026-05-08 20:48 46.05094 -72.26803 19989 ft 354 kts 226°
2026-05-08 20:48 46.03311 -72.29225 19586 ft 351 kts 226°
2026-05-08 20:49 46.01542 -72.31626 19191 ft 348 kts 226°
2026-05-08 20:49 45.99800 -72.33990 18791 ft 345 kts 226°
2026-05-08 20:49 45.98062 -72.36345 18408 ft 342 kts 226°
2026-05-08 20:49 45.96334 -72.38684 18004 ft 341 kts 226°
2026-05-08 20:50 45.94705 -72.41122 17561 ft 335 kts 237°
2026-05-08 20:50 45.93564 -72.43997 17225 ft 330 kts 244°
2026-05-08 20:50 45.92507 -72.46953 16821 ft 335 kts 244°
2026-05-08 20:50 45.91434 -72.49929 16427 ft 335 kts 244°
2026-05-08 20:51 45.90353 -72.52891 16045 ft 335 kts 244°
2026-05-08 20:51 45.89278 -72.55809 15669 ft 335 kts 244°
2026-05-08 20:51 45.88188 -72.58751 15293 ft 333 kts 243°
2026-05-08 20:51 45.87100 -72.61671 14922 ft 330 kts 243°
2026-05-08 20:52 45.86022 -72.64557 14534 ft 326 kts 243°
2026-05-08 20:52 45.84954 -72.67414 14166 ft 323 kts 243°
2026-05-08 20:52 45.83898 -72.70236 13792 ft 320 kts 243°
2026-05-08 20:52 45.82851 -72.73030 13404 ft 317 kts 243°
2026-05-08 20:53 45.81811 -72.75798 13026 ft 313 kts 243°
2026-05-08 20:53 45.80784 -72.78533 12666 ft 310 kts 243°
2026-05-08 20:53 45.79765 -72.81239 12306 ft 308 kts 243°
2026-05-08 20:53 45.78745 -72.83942 11958 ft 308 kts 243°
2026-05-08 20:54 45.77726 -72.86644 11619 ft 309 kts 243°
2026-05-08 20:54 45.76701 -72.89355 11261 ft 310 kts 243°
2026-05-08 20:54 45.75681 -72.92055 10962 ft 306 kts 243°
2026-05-08 20:54 45.74671 -72.94725 10602 ft 304 kts 243°
2026-05-08 20:55 45.73668 -72.97371 10278 ft 301 kts 243°
2026-05-08 20:55 45.72673 -72.99992 9926 ft 298 kts 243°
2026-05-08 20:55 45.71847 -73.02522 9675 ft 284 kts 255°
2026-05-08 20:55 45.71542 -73.05248 9425 ft 274 kts 264°
2026-05-08 20:56 45.71295 -73.07941 9106 ft 272 kts 262°
2026-05-08 20:56 45.71022 -73.10608 8841 ft 268 kts 262°
2026-05-08 20:56 45.70713 -73.13234 8469 ft 268 kts 257°
2026-05-08 20:56 45.70216 -73.15771 8212 ft 264 kts 253°
2026-05-08 20:57 45.69664 -73.18271 7868 ft 264 kts 253°
2026-05-08 20:57 45.69108 -73.20758 7565 ft 263 kts 253°
2026-05-08 20:57 45.68556 -73.23254 7274 ft 262 kts 253°
2026-05-08 20:57 45.68013 -73.25727 6959 ft 261 kts 253°
2026-05-08 20:58 45.67478 -73.28189 6651 ft 259 kts 253°
2026-05-08 20:58 45.66952 -73.30620 6341 ft 251 kts 253°
2026-05-08 20:58 45.66442 -73.32981 6033 ft 248 kts 254°
2026-05-08 20:58 45.65936 -73.35328 5718 ft 247 kts 253°
2026-05-08 20:59 45.65434 -73.37664 5423 ft 245 kts 253°
2026-05-08 20:59 45.64935 -73.39977 5137 ft 242 kts 254°
2026-05-08 20:59 45.64442 -73.42268 4854 ft 240 kts 253°
2026-05-08 20:59 45.63953 -73.44535 4581 ft 238 kts 253°
2026-05-08 21:00 45.63468 -73.46778 4307 ft 236 kts 253°
2026-05-08 21:00 45.62986 -73.49012 4024 ft 234 kts 253°
2026-05-08 21:00 45.62508 -73.51213 3771 ft 229 kts 252°
2026-05-08 21:00 45.61764 -73.53112 3529 ft 222 kts 230°
2026-05-08 21:01 45.60641 -73.54602 3272 ft 218 kts 225°
2026-05-08 21:01 45.59534 -73.56041 3090 ft 210 kts 226°
2026-05-08 21:01 45.58491 -73.57406 3014 ft 197 kts 226°
2026-05-08 21:01 45.57505 -73.58704 2828 ft 191 kts 226°
2026-05-08 21:02 45.56555 -73.59956 2574 ft 181 kts 226°
2026-05-08 21:02 45.55669 -73.61121 2300 ft 165 kts 226°
2026-05-08 21:02 45.54839 -73.62216 2116 ft 164 kts 226°
2026-05-08 21:02 45.54023 -73.63291 1854 ft 155 kts 226°
2026-05-08 21:03 45.53250 -73.64306 1684 ft 148 kts 227°
2026-05-08 21:03 45.52501 -73.65293 1465 ft 145 kts 227°
2026-05-08 21:03 45.51763 -73.66265 1265 ft 147 kts 227°
2026-05-08 21:03 45.51021 -73.67238 1070 ft 144 kts 227°
2026-05-08 21:04 45.50317 -73.68165 852 ft 134 kts 225°
2026-05-08 21:04 45.49655 -73.69035 674 ft 128 kts 225°
2026-05-08 21:04 45.48994 -73.69897 477 ft 127 kts 224°
2026-05-08 21:04 45.48334 -73.70767 352 ft 133 kts 223°
2026-05-08 21:05 45.47664 -73.71648 165 ft 127 kts 223°
2026-05-08 21:05 45.47057 -73.72446 121 ft 106 kts 223°
2026-05-08 21:05 45.46656 -73.72976 116 ft 53 kts 222°
2026-05-08 21:05 45.46446 -73.73245 113 ft 37 kts 221°
2026-05-08 21:06 45.46275 -73.73477 113 ft 32 kts 224°
2026-05-08 21:06 45.46164 -73.73651 111 ft 23 kts 252°
2026-05-08 21:06 45.46151 -73.73864 111 ft 18 kts 266°
2026-05-08 21:06 45.46143 -73.74045 110 ft 18 kts 266°
2026-05-08 21:07 45.46134 -73.74226 108 ft 18 kts 266°
2026-05-08 21:07 45.46130 -73.74407 108 ft 18 kts 268°
2026-05-08 21:07 45.46148 -73.74585 108 ft 18 kts 289°
2026-05-08 21:07 45.46160 -73.74764 109 ft 18 kts 266°
2026-05-08 21:08 45.46153 -73.74930 109 ft 16 kts 267°
2026-05-08 21:08 45.46147 -73.75091 108 ft 17 kts 267°
2026-05-08 21:08 45.46144 -73.75249 106 ft 13 kts 268°
2026-05-08 21:08 45.46105 -73.75353 107 ft 13 kts 197°
2026-05-08 21:09 45.46032 -73.75290 110 ft 13 kts 123°
2026-05-08 21:09 45.46009 -73.75203 110 ft 6 kts 98°
2026-05-08 21:09 45.45988 -73.75160 110 ft 3 kts 144°
2026-05-08 21:09 45.45966 -73.75147 110 ft 4 kts 162°
2026-05-08 21:10 45.45939 -73.75140 110 ft 0 kts 172°
2026-05-08 21:10 45.45936 -73.75140 110 ft 1 kts 173°
2026-05-08 21:10 45.45934 -73.75140 110 ft 1 kts 173°
2026-05-08 21:10 45.45927 -73.75139 110 ft 0 kts 175°
2026-05-08 21:11 45.45925 -73.75138 110 ft 0 kts 175°
2026-05-08 21:11 45.45922 -73.75138 110 ft 0 kts 175°